[[{"header":{"parameterUnit":"m.s-1","parameterCategory":1,"la1":30.2991,"la2":30.254,"lo1":-89.0895,"lo2":-89.0444,"dy":0.0017,"dx":0.0017,"nx":28,"ny":28,"refTime":"2024-08-28T21:00:00:Z","depth":0,"parameterNumber":2,"parameterNumberName":"U-component_of_WINDS"},"data":[0,0,0,0,0,0,0,0,0,0,0,0,0,0,0,0,0,0,0,0,0,0,0,0,0,0,0,0,0,0,0,0,0,0,0,0,0,0,0,0,0,0,0,0,0,0,0,0,0,0,0,0,0,0,0,0,0,0,-3.6294,-3.6294,0,-3.6278,-3.6278,-3.6278,-3.6222,-3.6221,-3.6219,-3.6218,-3.6204,-3.6204,-3.6205,0,0,0,0,0,0,0,0,0,0,0,0,0,-3.6277,-3.6278,-3.6294,-3.6294,-3.6294,-3.6278,-3.6278,-3.6278,-3.6222,-3.6221,-3.6219,-3.6218,-3.6203,-3.6204,-3.6205,0,0,0,0,0,0,0,0,0,0,0,0,0,-3.6275,-3.6278,-3.6294,-3.6264,-3.6261,-3.6278,-3.6278,-3.6278,-3.6222,-3.6221,-3.6219,-3.6217,-3.6203,-3.6204,-3.6205,-3.6251,0,0,-3.6209,-3.621,0,0,0,0,0,0,0,0,-3.6276,-3.6276,-3.6269,-3.6266,-3.6263,-3.625,-3.6267,-3.6269,-3.6223,-3.6237,-3.6218,-3.6216,-3.6221,-3.622,-3.6222,-3.625,-3.625,-3.6209,-3.621,-3.6211,-3.6211,0,0,0,0,0,0,0,-3.6276,-3.6276,-3.6288,-3.6268,-3.6265,-3.6252,-3.6249,-3.6267,-3.624,-3.6236,-3.6232,-3.6231,-3.6219,-3.6221,-3.6221,-3.625,-3.6209,-3.621,-3.6211,-3.6212,-3.6314,-3.6316,0,0,0,0,0,0,-3.628,-3.6277,-3.6288,-3.6287,-3.6265,-3.6254,-3.6251,-3.6256,-3.624,-3.6235,-3.6232,-3.6228,-3.622,-3.622,-3.622,-3.6271,-3.621,-3.6212,-3.6212,-3.6312,-3.6314,-3.6317,0,0,0,0,0,0,-3.628,-3.6281,-3.6289,-3.6281,-3.6281,-3.6256,-3.6262,-3.6257,-3.6258,-3.6237,-3.6232,-3.6239,-3.6218,-3.6219,-3.6243,-3.627,-3.6212,-3.6213,-3.631,-3.6313,-3.6316,-3.6374,0,0,0,0,0,0,-3.628,-3.6282,-3.6298,-3.6282,-3.6282,-3.6312,-3.6264,-3.6258,-3.626,-3.6255,-3.6242,-3.6238,-3.6217,-3.6242,-3.6245,-3.627,-3.6214,-3.6307,-3.6311,-3.6315,-3.6369,-3.6379,-3.6386,0,0,0,0,0,-3.6279,-3.6316,-3.6299,-3.6301,-3.6302,-3.6314,-3.6313,-3.6288,-3.6263,-3.6279,-3.6266,-3.6238,-3.6267,-3.6245,-3.6248,-3.6274,-3.6305,-3.631,-3.6314,-3.6366,-3.6377,-3.6386,0,0,0,0,0,0,-3.6337,-3.6313,-3.6295,-3.6327,-3.6323,-3.6304,-3.6324,-3.6301,-3.6304,-3.6298,-3.6267,-3.6265,-3.6294,-3.6287,-3.6263,-3.6317,-3.6282,-3.6287,-3.632,-3.633,-3.6338,-3.6338,-3.6215,0,0,0,0,0,-3.6353,-3.6364,-3.6344,-3.6374,-3.6373,-3.6349,-3.6354,-3.6334,-3.6329,-3.6327,-3.6315,-3.6311,-3.6319,-3.6324,-3.6331,-3.6369,-3.6365,-3.6389,-3.6397,-3.6404,-3.6408,-3.6427,-3.6437,-3.6331,-3.6331,-3.6331,0,0,-3.6387,-3.6376,-3.6385,-3.6386,-3.638,-3.6392,-3.6348,-3.6363,-3.6372,-3.6329,-3.6351,-3.6343,-3.6336,-3.6368,-3.6381,-3.6363,-3.6437,-3.641,-3.6416,-3.6416,-3.6433,-3.6443,-3.6451,-3.6334,-3.6334,-3.6333,0,0,-3.6455,-3.6448,-3.6472,-3.6468,-3.6459,-3.6443,-3.6449,-3.6434,-3.6427,-3.6448,-3.6416,-3.6427,-3.6442,-3.6438,-3.6438,-3.6506,-3.648,-3.6509,-3.6552,-3.657,-3.6579,-3.6586,-3.6608,-3.6616,-3.6514,-3.6514,-3.6514,0,-3.6498,-3.6515,-3.6488,-3.6504,-3.6505,-3.6468,-3.6491,-3.6489,-3.6483,-3.6485,-3.6465,-3.6482,-3.6475,-3.6505,-3.6521,-3.6523,-3.6529,-3.6509,-3.658,-3.6586,-3.6593,-3.6613,-3.6622,-3.6517,-3.6517,-3.6517,-3.6516,0,-3.6568,-3.658,-3.6601,-3.6595,-3.6599,-3.662,-3.6596,-3.6603,-3.6584,-3.6571,-3.6593,-3.6584,-3.6587,-3.6593,-3.6576,-3.662,-3.6609,-3.6585,-3.6548,-3.6607,-3.6625,-3.6633,-3.6522,-3.6521,-3.652,-3.6519,0,0,-3.6669,-3.6649,-3.6657,-3.6653,-3.6642,-3.6651,-3.6671,-3.6673,-3.6679,-3.6678,-3.6692,-3.6706,-3.6684,-3.6684,-3.6666,-3.6682,-3.6734,-3.6656,-3.6655,-3.6669,-3.6781,-3.6797,-3.6807,-3.6718,-3.672,-3.6721,-3.6781,0,-3.6731,-3.6761,-3.6738,-3.6772,-3.6783,-3.6748,-3.6764,-3.6759,-3.6748,-3.6755,-3.6743,-3.6752,-3.6723,-3.6723,-3.6738,-3.6725,-3.6756,-3.672,-3.673,-3.6731,-3.673,-3.6817,-3.6834,-3.6891,-3.6788,-3.679,-3.679,0,-3.6807,-3.6808,-3.6843,-3.6829,-3.6833,-3.6848,-3.6848,-3.6856,-3.685,-3.684,-3.6841,-3.6819,-3.6837,-3.6803,-3.6827,-3.6803,-3.6807,-3.6801,-3.6803,-3.68,-3.6762,-3.6815,-3.6909,-3.6916,-3.6802,-3.6801,-3.68,0,-3.6875,-3.6885,-3.6907,-3.6906,-3.689,-3.6902,-3.6896,-3.6888,-3.6891,-3.6892,-3.6893,-3.6897,-3.6899,-3.6902,-3.6881,-3.6859,-3.6908,-3.6872,-3.6899,-3.69,-3.6908,-3.6908,-3.7002,-3.6915,-3.6915,-3.6915,-3.6915,0,-3.6945,-3.6968,-3.6937,-3.695,-3.6974,-3.6948,-3.6973,-3.6964,-3.6957,-3.6968,-3.6939,-3.695,-3.6923,-3.6932,-3.6916,-3.6937,-3.6939,-3.6931,-3.6926,-3.6932,-3.6933,-3.6932,-3.6926,-3.6917,-3.6917,-3.6916,-3.6916,0,-3.7023,-3.7004,-3.7025,-3.7009,-3.7005,-3.7024,-3.701,-3.7022,-3.7009,-3.7023,-3.7025,-3.7005,-3.7013,-3.6994,-3.7,-3.6989,-3.7019,-3.7009,-3.702,-3.7016,-3.7043,-3.704,-3.7138,-3.7148,-3.7058,-3.7059,-3.706,0,-3.7068,-3.7084,-3.707,-3.7075,-3.707,-3.7079,-3.7082,-3.7057,-3.7061,-3.7056,-3.7069,-3.7075,-3.7078,-3.7093,-3.7079,-3.7084,-3.7072,-3.7106,-3.7072,-3.7078,-3.707,-3.7068,-3.7069,-3.7112,-3.7113,-3.7114,-3.7115,0,-3.7149,-3.7138,-3.7143,-3.7144,-3.7148,-3.7148,-3.7147,-3.7153,-3.7127,-3.7133,-3.7141,-3.7143,-3.7149,-3.7155,-3.7157,-3.7151,-3.7129,-3.7126,-3.7132,-3.7137,-3.7142,-3.7137,-3.7036,-3.7123,-3.7122,-3.7122,-3.7121,-3.7121,-3.721,-3.7222,-3.7213,-3.722,-3.7216,-3.7215,-3.7224,-3.7213,-3.7219,-3.7221,-3.7207,-3.7218,-3.7212,-3.7211,-3.7208,-3.7217,-3.7201,-3.721,-3.7212,-3.7214,-3.7217,-3.7143,-3.7217,-3.7217,-3.7217,-3.7216,-3.7216,0,-3.7287,-3.728,-3.7286,-3.7284,-3.7289,-3.7268,-3.7265,-3.727,-3.728,-3.7276,-3.728,-3.7289,-3.7295,-3.7282,-3.7286,-3.7295,-3.7284,-3.7296,-3.7294,-3.7293,-3.7232,-3.7225,-3.7305,-3.7305,-3.7305,-3.7305,-3.7305,-3.7305,-3.7327,-3.7346,-3.7335,-3.7352,-3.7345,-3.7355,-3.7355,-3.7354,-3.7351,-3.7362,-3.7366,-3.7358,-3.735,-3.7353,-3.7358,-3.7354,-3.7356,-3.7371,-3.7363,-3.7306,-3.7297,-3.7289,-3.7282,-3.7372,-3.7372,-3.7423,-3.7423,-3.7424]},{"header":{"parameterUnit":"m.s-1","parameterCategory":1,"la1":30.2991,"la2":30.254,"lo1":-89.0895,"lo2":-89.0444,"dy":0.0017,"dx":0.0017,"nx":28,"ny":28,"refTime":"2024-08-28T21:00:00:Z","depth":0,"parameterNumber":3,"parameterNumberName":"V-component_of_WINDS"},"data":[0,0,0,0,0,0,0,0,0,0,0,0,0,0,0,0,0,0,0,0,0,0,0,0,0,0,0,0,0,0,0,0,0,0,0,0,0,0,0,0,0,0,0,0,0,0,0,0,0,0,0,0,0,0,0,0,0,0,2.0624,2.0627,0,2.0835,2.0837,2.084,2.0954,2.0955,2.0955,2.0955,2.1164,2.117,2.1175,0,0,0,0,0,0,0,0,0,0,0,0,0,2.0317,2.0322,2.0624,2.0627,2.0629,2.0835,2.0838,2.084,2.0954,2.0955,2.0955,2.0955,2.1163,2.1169,2.1175,0,0,0,0,0,0,0,0,0,0,0,0,0,2.0481,2.0323,2.0624,2.0711,2.0721,2.0834,2.0838,2.0841,2.0954,2.0955,2.0955,2.0956,2.1161,2.1168,2.1176,2.1216,0,0,2.12,2.1204,0,0,0,0,0,0,0,0,2.0471,2.0492,2.0696,2.0705,2.0717,2.0869,2.0806,2.0967,2.0954,2.0866,2.0955,2.0956,2.1065,2.1081,2.1119,2.1226,2.1235,2.1201,2.1206,2.1209,2.1211,0,0,0,0,0,0,0,2.046,2.0483,2.0707,2.0698,2.0711,2.0739,2.0763,2.0837,2.096,2.0873,2.0882,2.0906,2.1071,2.1111,2.1125,2.1238,2.1201,2.1208,2.1213,2.1216,2.1391,2.1391,0,0,0,0,0,0,2.0435,2.0473,2.0701,2.0714,2.0593,2.0744,2.0771,2.082,2.096,2.0982,2.0905,2.091,2.1098,2.1116,2.1133,2.1192,2.1209,2.1217,2.1221,2.1392,2.1391,2.1391,0,0,0,0,0,0,2.0428,2.0454,2.0692,2.0596,2.0629,2.0749,2.0803,2.0823,2.0864,2.0984,2.1006,2.0924,2.1099,2.1122,2.1196,2.12,2.122,2.1227,2.1392,2.1392,2.1391,2.1307,0,0,0,0,0,0,2.0419,2.0451,2.0468,2.0596,2.0633,2.0752,2.0803,2.0827,2.0878,2.0887,2.1008,2.1028,2.1101,2.1183,2.1204,2.1212,2.1234,2.1392,2.1392,2.1391,2.131,2.1304,2.1299,0,0,0,0,0,2.0407,2.0434,2.0468,2.0495,2.0657,2.0752,2.0774,2.0859,2.0878,2.0896,2.0974,2.1024,2.1197,2.119,2.1214,2.1224,2.1392,2.1392,2.1391,2.1313,2.1306,2.13,0,0,0,0,0,0,2.03,2.0452,2.0492,2.0561,2.0643,2.0772,2.0797,2.0848,2.0925,2.093,2.1031,2.1057,2.1122,2.118,2.117,2.1272,2.13,2.1304,2.1232,2.1226,2.122,2.1205,2.124,0,0,0,0,0,2.0285,2.0351,2.0479,2.0528,2.0568,2.0675,2.0719,2.0779,2.0867,2.0902,2.0985,2.1067,2.1141,2.1186,2.126,2.1319,2.1348,2.1339,2.1333,2.1328,2.1331,2.137,2.1367,2.1391,2.1391,2.1391,0,0,2.0253,2.0344,2.0379,2.0509,2.058,2.0645,2.0703,2.0769,2.0819,2.0911,2.0988,2.1051,2.115,2.1218,2.1252,2.1269,2.1331,2.1328,2.1323,2.1329,2.1369,2.1367,2.1365,2.1391,2.1391,2.1391,0,0,2.0229,2.0304,2.0355,2.0426,2.0534,2.0606,2.0618,2.074,2.0787,2.0866,2.0937,2.0997,2.112,2.1189,2.124,2.1246,2.1296,2.1267,2.1239,2.1275,2.1274,2.1273,2.1277,2.1277,2.127,2.1269,2.1269,0,2.0176,2.028,2.0373,2.0438,2.0493,2.0583,2.0635,2.0698,2.0823,2.0859,2.0877,2.1036,2.1109,2.1196,2.1198,2.1235,2.1252,2.1254,2.1267,2.1267,2.1267,2.1272,2.1273,2.1265,2.1266,2.1266,2.1267,0,2.021,2.028,2.0308,2.0431,2.0489,2.0546,2.0648,2.0696,2.075,2.082,2.09,2.0991,2.1087,2.1112,2.1164,2.1207,2.1214,2.1248,2.1277,2.1259,2.1266,2.1268,2.126,2.1261,2.1262,2.1263,0,0,2.0122,2.03,2.0308,2.0367,2.0494,2.055,2.0612,2.0708,2.0748,2.0832,2.0886,2.0991,2.1024,2.1082,2.1143,2.1175,2.1178,2.1206,2.121,2.1199,2.1233,2.1208,2.1209,2.1212,2.1212,2.1213,2.1225,0,2.0118,2.0236,2.0324,2.0408,2.0476,2.0564,2.0618,2.0701,2.0769,2.0835,2.0909,2.0982,2.1019,2.1055,2.1091,2.117,2.1186,2.117,2.1264,2.1266,2.1237,2.1212,2.1185,2.1192,2.1228,2.1229,2.1229,0,2.0129,2.0214,2.0306,2.043,2.0462,2.0509,2.0606,2.0668,2.0765,2.0812,2.0879,2.0943,2.1012,2.1036,2.1133,2.112,2.1163,2.1208,2.1211,2.1223,2.1247,2.1225,2.1196,2.1198,2.1234,2.1234,2.1233,0,2.0059,2.0196,2.027,2.0317,2.0462,2.0494,2.0556,2.0654,2.0707,2.0791,2.0827,2.0917,2.0966,2.1034,2.1121,2.113,2.121,2.124,2.1251,2.1249,2.1264,2.1262,2.1243,2.129,2.129,2.129,2.129,0,2.0046,2.0099,2.0241,2.0286,2.0349,2.0449,2.0507,2.0576,2.0663,2.0723,2.0803,2.0857,2.0969,2.1036,2.1104,2.1176,2.1196,2.1236,2.1254,2.123,2.1225,2.1261,2.1263,2.129,2.129,2.129,2.129,0,1.9978,2.0075,2.0162,2.0295,2.0329,2.0369,2.0482,2.0529,2.0602,2.0677,2.0701,2.0814,2.0899,2.0993,2.1106,2.1153,2.122,2.1245,2.1188,2.1198,2.1205,2.1204,2.1209,2.1216,2.1255,2.1255,2.1254,0,1.9964,2.0008,2.0147,2.0194,2.0255,2.0329,2.0386,2.0486,2.0541,2.0658,2.0691,2.0782,2.086,2.099,2.1082,2.117,2.1199,2.1195,2.1212,2.1188,2.1201,2.1198,2.1204,2.1189,2.1188,2.1188,2.1187,0,1.993,1.9977,2.0056,2.0153,2.0219,2.03,2.0383,2.0417,2.0534,2.0592,2.0681,2.0741,2.0861,2.095,2.1051,2.1113,2.117,2.1181,2.1189,2.1165,2.1131,2.1152,2.1175,2.118,2.1181,2.1181,2.1182,2.1182,1.989,1.9935,2.004,2.0127,2.0201,2.0278,2.033,2.0411,2.0488,2.0595,2.0649,2.0738,2.0836,2.0978,2.1039,2.1109,2.1127,2.1138,2.1141,2.1142,2.1137,2.1119,2.1128,2.1128,2.1128,2.1129,2.1129,0,1.9862,1.9935,2.0014,2.0131,2.0199,2.0249,2.0345,2.0398,2.0476,2.0564,2.0641,2.0744,2.0832,2.0933,2.1027,2.1064,2.1093,2.1086,2.1085,2.1099,2.1114,2.1099,2.1061,2.1061,2.1061,2.1061,2.1061,2.1061,1.9855,1.9934,1.9994,2.011,2.0183,2.0273,2.0323,2.0395,2.0467,2.0579,2.0654,2.072,2.0814,2.0917,2.1,2.1027,2.1059,2.1044,2.1079,2.1091,2.1097,2.1102,2.1089,2.105,2.105,2.1059,2.1059,2.1059]}]]